Zurück zum Katalog

ONEWEB-0034

AktivKommunikationPO
NORAD 45454·PAYLOAD·🇬🇧 United Kingdom

Gestartet Mar 21, 2020 von Baikonur Cosmodrome

Loading…

Nächste Überflüge (nächste 24 Stunden)

TLE

AktuellSource: CelesTrak SupGP

Epoche: Sep 14, 2026, 23:09 UTC

1 45454C 20020AG  26257.96473796 -.00002845  00000+0 -80367-2 0  2572
2 45454  87.8980   3.2266 0001826 103.5930 358.8837 13.11419203    19

Verfolge ONEWEB-0034 in Echtzeit mit AllMySat

Download on the App Store